[[{"header":{"parameterUnit":"m.s-1","parameterCategory":1,"la1":30.2991,"la2":30.254,"lo1":-89.0895,"lo2":-89.0444,"dy":0.0017,"dx":0.0017,"nx":28,"ny":28,"refTime":"2023-10-27T03:00:00:Z","depth":0,"parameterNumber":2,"parameterNumberName":"U-component_of_WINDS"},"data":[0,0,0,0,0,0,0,0,0,0,0,0,0,0,0,0,0,0,0,0,0,0,0,0,0,0,0,0,0,0,0,0,0,0,0,0,0,0,0,0,0,0,0,0,0,0,0,0,0,0,0,0,0,0,0,0,0,0,-4.6582,-4.6583,0,-4.6641,-4.6642,-4.6642,-4.6603,-4.6601,-4.6599,-4.6597,-4.6654,-4.6657,-4.666,0,0,0,0,0,0,0,0,0,0,0,0,0,-4.6434,-4.6437,-4.6582,-4.6583,-4.6584,-4.6641,-4.6642,-4.6642,-4.6603,-4.6601,-4.6599,-4.6596,-4.6653,-4.6657,-4.666,0,0,0,0,0,0,0,0,0,0,0,0,0,-4.6496,-4.6438,-4.6582,-4.6571,-4.6571,-4.6641,-4.6642,-4.6643,-4.6603,-4.6601,-4.6598,-4.6595,-4.6652,-4.6656,-4.6661,-4.6744,0,0,-4.6676,-4.6678,0,0,0,0,0,0,0,0,-4.6492,-4.6501,-4.6572,-4.6572,-4.6572,-4.6612,-4.661,-4.6677,-4.6604,-4.6591,-4.6597,-4.6594,-4.6642,-4.6647,-4.6664,-4.6747,-4.6749,-4.6676,-4.6679,-4.6681,-4.6682,0,0,0,0,0,0,0,-4.6488,-4.6499,-4.6605,-4.6573,-4.6573,-4.6562,-4.6568,-4.6622,-4.6631,-4.6592,-4.6589,-4.6597,-4.6641,-4.666,-4.6665,-4.675,-4.6676,-4.668,-4.6683,-4.6685,-4.6903,-4.6906,0,0,0,0,0,0,-4.6485,-4.6495,-4.6604,-4.6607,-4.6525,-4.6567,-4.6574,-4.6602,-4.663,-4.6632,-4.6599,-4.6595,-4.6653,-4.666,-4.6667,-4.6765,-4.6681,-4.6685,-4.6688,-4.69,-4.6904,-4.6907,0,0,0,0,0,0,-4.6482,-4.6495,-4.6601,-4.6551,-4.6563,-4.6573,-4.6604,-4.6604,-4.6622,-4.6635,-4.6636,-4.6616,-4.6651,-4.666,-4.6725,-4.6766,-4.6687,-4.6692,-4.6897,-4.6901,-4.6905,-4.6962,0,0,0,0,0,0,-4.6478,-4.6494,-4.6527,-4.6552,-4.6566,-4.6659,-4.6607,-4.6607,-4.6631,-4.6626,-4.6652,-4.6654,-4.6649,-4.6718,-4.673,-4.6771,-4.6696,-4.6893,-4.6899,-4.6904,-4.6956,-4.6967,-4.6977,0,0,0,0,0,-4.6473,-4.654,-4.6528,-4.6542,-4.6607,-4.6662,-4.667,-4.6665,-4.6635,-4.6666,-4.6675,-4.6653,-4.6761,-4.6725,-4.6738,-4.6781,-4.689,-4.6897,-4.6904,-4.6951,-4.6965,-4.6977,0,0,0,0,0,0,-4.6518,-4.6543,-4.653,-4.6608,-4.6633,-4.6655,-4.6695,-4.668,-4.6714,-4.6707,-4.6699,-4.6705,-4.6773,-4.6784,-4.6744,-4.6863,-4.682,-4.683,-4.6853,-4.6866,-4.6876,-4.687,-4.6699,0,0,0,0,0,-4.6537,-4.6581,-4.66,-4.6666,-4.6679,-4.6685,-4.6709,-4.6703,-4.6729,-4.6739,-4.6752,-4.6777,-4.6816,-4.6842,-4.6879,-4.6959,-4.6963,-4.6995,-4.7006,-4.7014,-4.7021,-4.7063,-4.7077,-4.6929,-4.6929,-4.6928,0,0,-4.6576,-4.6595,-4.6623,-4.6675,-4.6694,-4.6738,-4.6694,-4.6743,-4.6775,-4.6746,-4.6808,-4.6819,-4.6846,-4.6918,-4.6951,-4.693,-4.7064,-4.7023,-4.7029,-4.7032,-4.7071,-4.7085,-4.7097,-4.6933,-4.6932,-4.6932,0,0,-4.6669,-4.669,-4.6746,-4.6767,-4.6796,-4.68,-4.6814,-4.6839,-4.6845,-4.6908,-4.6886,-4.6925,-4.6993,-4.7013,-4.7032,-4.7135,-4.7115,-4.7148,-4.7201,-4.7242,-4.7253,-4.7263,-4.7298,-4.7311,-4.7156,-4.7156,-4.7156,0,-4.6714,-4.678,-4.6777,-4.6827,-4.685,-4.6828,-4.6884,-4.6904,-4.6944,-4.696,-4.6937,-4.7022,-4.7039,-4.7115,-4.714,-4.7157,-4.7171,-4.7143,-4.7252,-4.7262,-4.7272,-4.7305,-4.7318,-4.7159,-4.7159,-4.7158,-4.7158,0,-4.6832,-4.6879,-4.6921,-4.6961,-4.699,-4.7043,-4.7046,-4.7075,-4.7068,-4.7074,-4.7137,-4.7158,-4.7198,-4.7216,-4.7209,-4.7291,-4.7277,-4.7254,-4.721,-4.729,-4.732,-4.7333,-4.7164,-4.7163,-4.7162,-4.7161,0,0,-4.6952,-4.6992,-4.7007,-4.7024,-4.7057,-4.7092,-4.7145,-4.7185,-4.7209,-4.7239,-4.7281,-4.734,-4.7319,-4.7341,-4.7336,-4.7372,-4.745,-4.7344,-4.7344,-4.736,-4.7539,-4.7555,-4.757,-4.7439,-4.7441,-4.7443,-4.7536,0,-4.7046,-4.7137,-4.7136,-4.722,-4.7263,-4.7243,-4.7288,-4.7313,-4.732,-4.7357,-4.7365,-4.7406,-4.7376,-4.7389,-4.7424,-4.7433,-4.7485,-4.7427,-4.7475,-4.7477,-4.7466,-4.7586,-4.7602,-4.7689,-4.7549,-4.7551,-4.7552,0,-4.7166,-4.72,-4.7289,-4.7315,-4.7332,-4.7373,-4.741,-4.7446,-4.7473,-4.7476,-4.7501,-4.7491,-4.7543,-4.7501,-4.7572,-4.7532,-4.7553,-4.756,-4.7564,-4.7565,-4.7517,-4.7588,-4.7717,-4.7729,-4.7571,-4.757,-4.7568,0,-4.7241,-4.731,-4.7371,-4.7388,-4.742,-4.7449,-4.7464,-4.7489,-4.7513,-4.7546,-4.7561,-4.7599,-4.7619,-4.7649,-4.7649,-4.7619,-4.772,-4.7678,-4.7722,-4.7722,-4.7741,-4.7739,-4.7872,-4.776,-4.776,-4.7759,-4.7759,0,-4.7343,-4.7398,-4.7406,-4.7443,-4.7503,-4.7502,-4.7562,-4.7574,-4.7596,-4.7635,-4.7621,-4.7658,-4.7657,-4.7694,-4.7695,-4.7752,-4.7762,-4.7765,-4.7763,-4.7764,-4.7763,-4.7775,-4.7768,-4.7763,-4.7762,-4.7761,-4.7761,0,-4.7436,-4.7444,-4.751,-4.7536,-4.7544,-4.7587,-4.7609,-4.7644,-4.7652,-4.7701,-4.7712,-4.7724,-4.7767,-4.7771,-4.7821,-4.7821,-4.789,-4.7884,-4.788,-4.7878,-4.7921,-4.7916,-4.8064,-4.8082,-4.796,-4.7961,-4.7962,0,-4.7499,-4.7541,-4.7572,-4.7598,-4.7615,-4.7656,-4.7681,-4.7682,-4.7709,-4.7743,-4.7774,-4.7816,-4.7849,-4.7919,-4.7931,-4.7969,-4.7962,-4.8011,-4.7967,-4.7966,-4.7959,-4.7956,-4.7959,-4.8018,-4.802,-4.8021,-4.8022,0,-4.761,-4.7612,-4.7649,-4.7689,-4.7719,-4.775,-4.7779,-4.78,-4.7804,-4.7835,-4.7879,-4.7906,-4.7957,-4.7998,-4.8036,-4.805,-4.8036,-4.8036,-4.8048,-4.8047,-4.8043,-4.8043,-4.79,-4.8032,-4.8031,-4.803,-4.8029,-4.8029,-4.7688,-4.7724,-4.7751,-4.7793,-4.7816,-4.7843,-4.7877,-4.789,-4.7927,-4.7969,-4.7968,-4.8016,-4.8042,-4.8092,-4.8109,-4.8146,-4.8129,-4.8147,-4.8151,-4.8154,-4.8158,-4.804,-4.8153,-4.8153,-4.8153,-4.8153,-4.8152,0,-4.7796,-4.7813,-4.7852,-4.7893,-4.7926,-4.7913,-4.7944,-4.7972,-4.8015,-4.8041,-4.8075,-4.8126,-4.8166,-4.8182,-4.8221,-4.8248,-4.8242,-4.8258,-4.8254,-4.8257,-4.8172,-4.8156,-4.8262,-4.8262,-4.8261,-4.8261,-4.8261,-4.8261,-4.7855,-4.7914,-4.792,-4.799,-4.8007,-4.8055,-4.8073,-4.8098,-4.8119,-4.8177,-4.821,-4.8221,-4.8243,-4.8284,-4.832,-4.8324,-4.8338,-4.8355,-4.8356,-4.8275,-4.8264,-4.8253,-4.8238,-4.8359,-4.8359,-4.8438,-4.8439,-4.844]},{"header":{"parameterUnit":"m.s-1","parameterCategory":1,"la1":30.2991,"la2":30.254,"lo1":-89.0895,"lo2":-89.0444,"dy":0.0017,"dx":0.0017,"nx":28,"ny":28,"refTime":"2023-10-27T03:00:00:Z","depth":0,"parameterNumber":3,"parameterNumberName":"V-component_of_WINDS"},"data":[0,0,0,0,0,0,0,0,0,0,0,0,0,0,0,0,0,0,0,0,0,0,0,0,0,0,0,0,0,0,0,0,0,0,0,0,0,0,0,0,0,0,0,0,0,0,0,0,0,0,0,0,0,0,0,0,0,0,1.7285,1.7285,0,1.731,1.731,1.731,1.7288,1.7287,1.7286,1.7285,1.7312,1.7313,1.7315,0,0,0,0,0,0,0,0,0,0,0,0,0,1.722,1.7221,1.7285,1.7285,1.7285,1.731,1.731,1.7311,1.7288,1.7287,1.7286,1.7285,1.7311,1.7313,1.7315,0,0,0,0,0,0,0,0,0,0,0,0,0,1.7247,1.7221,1.7285,1.7277,1.7276,1.731,1.731,1.7311,1.7288,1.7287,1.7285,1.7284,1.7311,1.7313,1.7315,1.7358,0,0,1.7323,1.7324,0,0,0,0,0,0,0,0,1.7245,1.7249,1.7278,1.7278,1.7277,1.7294,1.7297,1.7327,1.7289,1.7284,1.7285,1.7283,1.7307,1.731,1.7318,1.7359,1.736,1.7323,1.7324,1.7325,1.7326,0,0,0,0,0,0,0,1.7243,1.7248,1.7295,1.7278,1.7278,1.7273,1.7276,1.7303,1.7303,1.7284,1.7283,1.7286,1.7307,1.7315,1.7318,1.7361,1.7323,1.7325,1.7326,1.7327,1.7442,1.7443,0,0,0,0,0,0,1.7242,1.7247,1.7294,1.7295,1.7257,1.7276,1.7278,1.729,1.7303,1.7303,1.7287,1.7285,1.7312,1.7315,1.7319,1.7372,1.7325,1.7328,1.7329,1.744,1.7442,1.7444,0,0,0,0,0,0,1.7241,1.7246,1.7293,1.7271,1.7276,1.7278,1.7292,1.7291,1.73,1.7305,1.7305,1.7296,1.7311,1.7316,1.7349,1.7372,1.7329,1.7331,1.7438,1.7441,1.7443,1.7477,0,0,0,0,0,0,1.7239,1.7246,1.7261,1.7271,1.7277,1.7322,1.7293,1.7293,1.7304,1.7301,1.7313,1.7313,1.731,1.7346,1.7351,1.7375,1.7333,1.7436,1.744,1.7442,1.7473,1.748,1.7485,0,0,0,0,0,1.7237,1.7269,1.7262,1.7268,1.7296,1.7323,1.7327,1.7322,1.7306,1.7322,1.7326,1.7313,1.7369,1.7349,1.7356,1.738,1.7435,1.7439,1.7442,1.7471,1.7479,1.7485,0,0,0,0,0,0,1.7262,1.727,1.7263,1.7299,1.7311,1.7319,1.7339,1.733,1.7347,1.7343,1.7337,1.734,1.7376,1.7381,1.7359,1.7424,1.7399,1.7404,1.7419,1.7426,1.7432,1.7431,1.7335,0,0,0,0,0,1.7271,1.7292,1.7298,1.733,1.7336,1.7337,1.7348,1.7344,1.7356,1.736,1.7366,1.7379,1.74,1.7413,1.7432,1.7474,1.7478,1.7494,1.75,1.7505,1.751,1.7536,1.7544,1.7456,1.7456,1.7456,0,0,1.7292,1.7299,1.7312,1.7335,1.7343,1.7366,1.7341,1.7365,1.7382,1.7364,1.7397,1.7402,1.7415,1.7454,1.7472,1.746,1.7535,1.751,1.7514,1.7516,1.754,1.7549,1.7556,1.7459,1.7458,1.7458,0,0,1.7341,1.7347,1.7376,1.7385,1.7399,1.7399,1.7406,1.7417,1.742,1.7452,1.744,1.7461,1.7496,1.7507,1.7517,1.7574,1.7564,1.758,1.7612,1.7637,1.7644,1.765,1.7672,1.768,1.7585,1.7585,1.7585,0,1.7364,1.7397,1.7391,1.7417,1.7429,1.7414,1.7444,1.7454,1.7473,1.7482,1.7468,1.7514,1.7522,1.7564,1.7579,1.7587,1.7596,1.7579,1.7643,1.7649,1.7655,1.7676,1.7685,1.7587,1.7587,1.7586,1.7586,0,1.7427,1.745,1.7471,1.7491,1.7505,1.7533,1.7533,1.7548,1.7543,1.7546,1.7581,1.759,1.7613,1.7622,1.7617,1.7665,1.7658,1.7644,1.7619,1.7665,1.7686,1.7694,1.759,1.7589,1.7588,1.7588,0,0,1.7491,1.7509,1.7517,1.7527,1.7542,1.7561,1.7589,1.7611,1.7625,1.7639,1.7664,1.7695,1.7683,1.7695,1.7692,1.7713,1.7761,1.7697,1.7697,1.7711,1.7818,1.783,1.7839,1.7754,1.7756,1.7757,1.7818,0,1.7542,1.7591,1.7588,1.7634,1.7657,1.7645,1.767,1.7683,1.7687,1.7708,1.7712,1.7735,1.7716,1.7724,1.7745,1.7751,1.7783,1.7746,1.7779,1.7781,1.7778,1.7849,1.7861,1.7918,1.7825,1.7826,1.7827,0,1.7608,1.7626,1.7675,1.7689,1.7699,1.7721,1.7742,1.7762,1.7777,1.7779,1.7793,1.7787,1.7818,1.7792,1.7836,1.7811,1.7825,1.783,1.7832,1.7836,1.7808,1.7857,1.7935,1.7945,1.7839,1.7838,1.7838,0,1.7653,1.7689,1.7724,1.7732,1.7749,1.7766,1.7774,1.7788,1.7802,1.7821,1.7831,1.7853,1.7866,1.7884,1.7885,1.7866,1.793,1.7903,1.7934,1.7934,1.7948,1.7948,1.8032,1.7954,1.7954,1.7954,1.7954,0,1.7712,1.7742,1.7745,1.7766,1.7801,1.7798,1.7834,1.784,1.7853,1.7877,1.7867,1.789,1.7889,1.7913,1.7913,1.7951,1.7956,1.796,1.796,1.7962,1.7962,1.7971,1.7968,1.7956,1.7956,1.7955,1.7955,0,1.7768,1.777,1.7808,1.7821,1.7826,1.7851,1.7864,1.7885,1.7889,1.7919,1.7926,1.7933,1.796,1.7963,1.7994,1.7995,1.8042,1.8036,1.8037,1.8036,1.8067,1.8065,1.8162,1.8176,1.8087,1.8088,1.8089,0,1.7806,1.783,1.7846,1.7862,1.7871,1.7895,1.7911,1.7909,1.7926,1.7947,1.7966,1.7993,1.8015,1.806,1.8068,1.8093,1.809,1.8122,1.8094,1.8096,1.8093,1.8093,1.8096,1.8128,1.8129,1.813,1.813,0,1.7874,1.7874,1.7896,1.792,1.7938,1.7956,1.7973,1.7987,1.7988,1.8007,1.8036,1.8052,1.8086,1.8114,1.8139,1.8148,1.8141,1.8139,1.8148,1.8151,1.8151,1.8154,1.8054,1.8137,1.8137,1.8136,1.8136,1.8135,1.7924,1.7945,1.7962,1.7987,1.8,1.8017,1.8039,1.8046,1.8069,1.8097,1.8095,1.8127,1.8145,1.8178,1.8189,1.8216,1.8205,1.8217,1.822,1.8224,1.8228,1.8146,1.822,1.822,1.822,1.8219,1.8219,0,1.7993,1.8003,1.8027,1.8052,1.8073,1.8063,1.8082,1.8101,1.8129,1.8146,1.8168,1.8202,1.823,1.8241,1.8269,1.8288,1.8285,1.8295,1.8295,1.8298,1.8235,1.8226,1.8297,1.8297,1.8297,1.8297,1.8297,1.8297,1.8032,1.8069,1.8072,1.8117,1.8127,1.8159,1.8171,1.8187,1.8201,1.824,1.8263,1.827,1.8285,1.8314,1.834,1.8343,1.8354,1.8367,1.8368,1.8309,1.8302,1.8294,1.8286,1.8368,1.8369,1.8429,1.8429,1.843]}]]